P/2015 C1 ( TOTAS-Gibbs )

Japanese version
Home page
Updated on August 9, 2016

---------------------------------------------------------------------

* Profile

Discovery Date February 11 and 13, 2015
Magnitude 18.9 mag, 18.7 mag
Discoverer Teide Observatory Tenerife Asteroid Survey (TOTAS), A. R. Gibbs (Mount Lemmon)

* Pictures

* Orbital Elements

Epoch 2015 May 18.0 TT = JDT 2457160.5
T 2015 May 1.25213 TT                                   MPCW
q   2.8927009            (2000.0)            P               Q
n   0.05804474     Peri.  178.40528     -0.97556336     -0.21477604
a   6.6063382      Node   348.86136     +0.19883915     -0.77326582
e   0.5621325      Incl.   13.87916     +0.09348331     -0.59659972
P  16.98
From 277 observations 2015 Jan. 23-2016 Apr. 14, mean residual 0".4.

* Magnitudes Graph

        m1 = 9.8 + 5 log d + 15.0 log r

---------------------------------------------------------------------

The orbital elements are published on M.P.E.C. 2016-H35.
The magnitudes graphs are made with Comet for Windows.

---------------------------------------------------------------------

Copyright(C) Seiichi Yoshida (comet@aerith.net). All rights reserved.